Previsão horária em Barnowo

Hoje, 28 Outubro, Quarta-feira

Tempo Temperatura Precipitação Vento Pressão Humidade
00:00 +7°C° 0 mm 4 m/s 747 mmHg 78%
01:00 +7°C° 0 mm 4 m/s 747 mmHg 78%
02:00 +7°C° 0 mm 4 m/s 747 mmHg 78%
03:00 +7°C° 0 mm 4 m/s 747 mmHg 78%
04:00 +7°C° 0 mm 4 m/s 746 mmHg 78%
05:00 +7°C° 0 mm 5 m/s 746 mmHg 77%
06:00 +7°C° 0 mm 5 m/s 746 mmHg 77%
07:00 +7°C° 0 mm 6 m/s 746 mmHg 75%
08:00 +7°C° 0 mm 6 m/s 746 mmHg 72%
09:00 +8°C° 0 mm 6 m/s 746 mmHg 68%
10:00 +9°C° 0 mm 6 m/s 746 mmHg 64%
11:00 +8°C° 0.1 mm 6 m/s 746 mmHg 69%
12:00 +8°C° 0.1 mm 6 m/s 746 mmHg 73%
13:00 +7°C° 0 mm 5 m/s 746 mmHg 80%
14:00 +7°C° 0.1 mm 5 m/s 746 mmHg 82%
15:00 +7°C° 0.1 mm 5 m/s 747 mmHg 84%
16:00 +7°C° 0.1 mm 4 m/s 747 mmHg 86%
17:00 +7°C° 0 mm 4 m/s 747 mmHg 87%
18:00 +7°C° 0 mm 4 m/s 747 mmHg 88%
19:00 +7°C° 0 mm 4 m/s 747 mmHg 88%
20:00 +7°C° 0 mm 4 m/s 747 mmHg 89%
21:00 +7°C° 0 mm 4 m/s 747 mmHg 90%
22:00 +7°C° 0 mm 4 m/s 747 mmHg 90%
23:00 +7°C° 0 mm 4 m/s 747 mmHg 92%

Amanhã, 29 Outubro, Quinta-feira

Tempo Temperatura Precipitação Vento Pressão Humidade
00:00 +7°C° 0 mm 4 m/s 747 mmHg 93%
01:00 +7°C° 0 mm 4 m/s 747 mmHg 95%
02:00 +6°C° 0 mm 4 m/s 746 mmHg 95%
03:00 +6°C° 0 mm 4 m/s 746 mmHg 95%
04:00 +6°C° 0 mm 4 m/s 746 mmHg 95%
05:00 +6°C° 0 mm 4 m/s 746 mmHg 94%
06:00 +6°C° 0 mm 4 m/s 746 mmHg 94%
07:00 +6°C° 0 mm 4 m/s 745 mmHg 93%
08:00 +7°C° 0 mm 4 m/s 745 mmHg 89%
09:00 +8°C° 0 mm 5 m/s 745 mmHg 86%
10:00 +8°C° 0 mm 5 m/s 745 mmHg 83%
11:00 +9°C° 0.4 mm 5 m/s 745 mmHg 82%
12:00 +9°C° 0.4 mm 5 m/s 745 mmHg 82%
13:00 +10°C° 0.4 mm 4 m/s 745 mmHg 82%
14:00 +10°C° 0.3 mm 4 m/s 745 mmHg 80%
15:00 +8°C° 0.3 mm 4 m/s 745 mmHg 79%
16:00 +8°C° 0.3 mm 4 m/s 745 mmHg 77%
17:00 +8°C° 0.3 mm 4 m/s 746 mmHg 81%
18:00 +7°C° 0.3 mm 5 m/s 746 mmHg 84%
19:00 +7°C° 0.3 mm 5 m/s 746 mmHg 87%
20:00 +7°C° 0.6 mm 5 m/s 746 mmHg 88%
21:00 +7°C° 0.6 mm 5 m/s 747 mmHg 89%
22:00 +8°C° 0.6 mm 5 m/s 747 mmHg 90%
23:00 +8°C° 0.7 mm 5 m/s 747 mmHg 88%

Depois de amanhã, 30 Outubro, Sexta-feira

Tempo Temperatura Precipitação Vento Pressão Humidade
00:00 +8°C° 0.7 mm 5 m/s 748 mmHg 86%
01:00 +8°C° 0.7 mm 5 m/s 748 mmHg 84%
02:00 +7°C° 0 mm 5 m/s 749 mmHg 86%
03:00 +7°C° 0 mm 4 m/s 749 mmHg 88%
04:00 +7°C° 0 mm 4 m/s 749 mmHg 90%
05:00 +7°C° 0 mm 4 m/s 750 mmHg 91%
06:00 +7°C° 0 mm 4 m/s 750 mmHg 91%
07:00 +7°C° 0 mm 4 m/s 750 mmHg 91%
08:00 +7°C° 0 mm 4 m/s 750 mmHg 88%
09:00 +7°C° 0 mm 4 m/s 750 mmHg 85%
10:00 +8°C° 0 mm 3 m/s 750 mmHg 82%
11:00 +8°C° 0 mm 3 m/s 750 mmHg 81%
12:00 +9°C° 0 mm 3 m/s 750 mmHg 80%
13:00 +9°C° 0 mm 3 m/s 750 mmHg 79%
14:00 +9°C° 0.4 mm 3 m/s 750 mmHg 83%
15:00 +8°C° 0.4 mm 2 m/s 750 mmHg 87%
16:00 +8°C° 0.4 mm 2 m/s 750 mmHg 91%
17:00 +8°C° 0.2 mm 2 m/s 750 mmHg 91%
18:00 +8°C° 0.2 mm 2 m/s 750 mmHg 92%
19:00 +8°C° 0.2 mm 2 m/s 750 mmHg 93%
20:00 +8°C° 0.1 mm 2 m/s 750 mmHg 93%
21:00 +8°C° 0.1 mm 2 m/s 751 mmHg 94%
22:00 +8°C° 0.1 mm 2 m/s 751 mmHg 94%
23:00 +8°C° 0 mm 2 m/s 751 mmHg 95%

31 Outubro, Sábado

Tempo Temperatura Precipitação Vento Pressão Humidade
00:00 +8°C° 0 mm 1 m/s 752 mmHg 95%
01:00 +8°C° 0 mm 1 m/s 752 mmHg 95%
02:00 +7°C° 0 mm 2 m/s 753 mmHg 95%
03:00 +7°C° 0 mm 2 m/s 753 mmHg 94%
04:00 +7°C° 0 mm 2 m/s 754 mmHg 94%
05:00 +7°C° 0 mm 2 m/s 754 mmHg 94%
06:00 +7°C° 0 mm 2 m/s 754 mmHg 93%
07:00 +7°C° 0 mm 2 m/s 754 mmHg 93%
08:00 +8°C° 0 mm 2 m/s 755 mmHg 91%
09:00 +9°C° 0 mm 3 m/s 755 mmHg 89%
10:00 +9°C° 0 mm 3 m/s 755 mmHg 87%
11:00 +9°C° 0 mm 3 m/s 755 mmHg 86%
12:00 +10°C° 0 mm 3 m/s 755 mmHg 85%
13:00 +10°C° 0 mm 3 m/s 756 mmHg 83%
14:00 +10°C° 0 mm 3 m/s 755 mmHg 84%
15:00 +10°C° 0 mm 3 m/s 755 mmHg 85%
16:00 +10°C° 0 mm 3 m/s 755 mmHg 86%
17:00 +10°C° 0 mm 3 m/s 755 mmHg 86%
18:00 +10°C° 0 mm 3 m/s 756 mmHg 87%
19:00 +10°C° 0 mm 3 m/s 756 mmHg 87%
20:00 +10°C° 0 mm 4 m/s 756 mmHg 87%
21:00 +10°C° 0 mm 4 m/s 755 mmHg 86%
22:00 +10°C° 0 mm 4 m/s 755 mmHg 85%
23:00 +10°C° 0 mm 4 m/s 755 mmHg 84%

1 Novembro, Domingo

Tempo Temperatura Precipitação Vento Pressão Humidade
00:00 +8°C° 0 mm 4 m/s 755 mmHg 84%
01:00 +8°C° 0 mm 5 m/s 755 mmHg 83%
02:00 +8°C° 0 mm 5 m/s 755 mmHg 81%
03:00 +8°C° 0 mm 5 m/s 754 mmHg 80%
04:00 +7°C° 0 mm 5 m/s 754 mmHg 79%
05:00 +7°C° 0 mm 5 m/s 754 mmHg 78%
06:00 +7°C° 0 mm 5 m/s 754 mmHg 78%
07:00 +7°C° 0 mm 5 m/s 754 mmHg 77%
08:00 +8°C° 0 mm 6 m/s 754 mmHg 75%
09:00 +8°C° 0 mm 6 m/s 753 mmHg 72%
10:00 +9°C° 0 mm 7 m/s 753 mmHg 70%
11:00 +10°C° 0 mm 7 m/s 752 mmHg 69%
12:00 +10°C° 0 mm 7 m/s 752 mmHg 68%
13:00 +11°C° 0 mm 7 m/s 752 mmHg 67%
14:00 +11°C° 0 mm 7 m/s 751 mmHg 68%
15:00 +10°C° 0 mm 7 m/s 751 mmHg 69%
16:00 +10°C° 0 mm 7 m/s 750 mmHg 70%
17:00 +10°C° 0 mm 6 m/s 750 mmHg 73%
18:00 +10°C° 0 mm 6 m/s 750 mmHg 76%
19:00 +10°C° 0 mm 6 m/s 750 mmHg 78%
20:00 +10°C° 0 mm 6 m/s 750 mmHg 81%
21:00 +10°C° 0 mm 5 m/s 750 mmHg 83%
22:00 +10°C° 0 mm 5 m/s 750 mmHg 86%
23:00 +10°C° 0 mm 5 m/s 750 mmHg 87%

2 Novembro, Segunda-feira

Tempo Temperatura Precipitação Vento Pressão Humidade
00:00 +10°C° 0 mm 5 m/s 749 mmHg 88%
01:00 +10°C° 0 mm 5 m/s 749 mmHg 89%
02:00 +11°C° 0 mm 4 m/s 749 mmHg 90%
03:00 +11°C° 0 mm 4 m/s 749 mmHg 91%
04:00 +11°C° 0 mm 4 m/s 749 mmHg 92%
05:00 +11°C° 0 mm 4 m/s 749 mmHg 92%
06:00 +11°C° 0 mm 4 m/s 749 mmHg 92%
07:00 +12°C° 0 mm 4 m/s 749 mmHg 92%
08:00 +12°C° 0 mm 5 m/s 749 mmHg 90%
09:00 +12°C° 0 mm 5 m/s 749 mmHg 89%
10:00 +12°C° 0 mm 5 m/s 749 mmHg 87%
11:00 +13°C° 0 mm 5 m/s 749 mmHg 85%
12:00 +14°C° 0 mm 5 m/s 749 mmHg 82%
13:00 +15°C° 0 mm 5 m/s 749 mmHg 79%
14:00 +14°C° 0 mm 5 m/s 749 mmHg 81%
15:00 +14°C° 0 mm 4 m/s 749 mmHg 83%
16:00 +14°C° 0 mm 4 m/s 749 mmHg 85%
17:00 +14°C° 0 mm 4 m/s 749 mmHg 87%
18:00 +14°C° 0 mm 4 m/s 749 mmHg 89%
19:00 +13°C° 0 mm 4 m/s 750 mmHg 91%
20:00 +13°C° 0 mm 4 m/s 750 mmHg 91%
21:00 +13°C° 0 mm 4 m/s 750 mmHg 91%
22:00 +13°C° 0 mm 4 m/s 750 mmHg 91%
23:00 +13°C° 0 mm 4 m/s 750 mmHg 91%
Mostrar mais